Flag for Poland Weather past 2 weeks in Tarnów, Poland

Now
61 °F

Cool.


Feels Like: 61 °F
Forecast: 57 / 64 °F
Wind: 1 mph from Northeast

Location: Tarnow

Current Time: May 25, 2015 at 6:04:24 PM

Latest Report: May 25, 2015 at 5:00 PM


Visibility: 10 mi

Pressure: 29.85 "Hg

Humidity: 83%

Dew point: 56 °F

Location of TarnówLocation

Historic Weather in Tarnów — Graph

°F

Tarnów temperature yesterday

Maximum temperature yesterday: 55 °F (at 6:00 PM)
Minimum temperature yesterday: 51 °F (at 7:00 AM)
Average temperature yesterday: 53 °F

Past Weeks' High & Low Weather Summary

 TemperatureHumidityPressure
High80 °F (May 19, 3:00 PM)98% (May 12, 6:00 AM)30.40 "Hg (May 12, 6:00 AM)
Low36 °F (May 15, 5:00 AM)27% (May 19, 2:00 PM)29.72 "Hg (May 14, 1:00 PM)
Average56 °F73%30.05 "Hg
* Reported May 10 4:00 PM — May 25 4:00 PM, Tarnów, Weather by CustomWeather, © 2015

Note: Actual official high and low records may vary slightly from our data, if they occured in-between our weather recording intervals... More about our weather records

Advertising

Tarnów weather history for previous 24 hours

 ConditionsComfort  
Time TempWeatherWind HumidityBarometerVisibility
4:00 PM
Mon, May 25
60 °FCool.2 mph86%29.86 "Hg7 mi
3:00 PM61 °FCool.2 mph83%29.88 "Hg7 mi
2:00 PM61 °FCool.2 mph81%29.89 "Hg7 mi
1:00 PM60 °FCool.1 mph82%29.92 "Hg8 mi
12:00 PM59 °FCool.1 mph84%29.92 "Hg9 mi
11:00 AM58 °FCool.2 mph87%29.93 "Hg9 mi
10:00 AM57 °FRain showers. Cloudy.2 mph92%29.93 "Hg5 mi
9:00 AM56 °FFog.1 mph94%29.96 "Hg2 mi
8:00 AM55 °FCool.1 mph91%29.96 "Hg6 mi
7:00 AM54 °FCool.2 mph92%29.96 "Hg7 mi
6:00 AM54 °FFog.1 mph93%29.97 "Hg6 mi
4:00 AM54 °FCool.1 mph92%29.99 "Hg9 mi
3:00 AM53 °FCool.1 mph93%30.00 "Hg9 mi
2:00 AM54 °FFog.1 mph92%30.02 "Hg6 mi
1:00 AM54 °FFog.1 mph93%30.03 "Hg4 mi
12:00 AM53 °FFog.No wind95%30.05 "Hg3 mi
10:00 PM
Sun, May 24
54 °FFog.No wind94%30.06 "Hg3 mi
9:00 PM54 °FFog.1 mph93%30.06 "Hg5 mi
8:00 PM55 °FCool.No wind91%30.06 "Hg7 mi
7:00 PM55 °FCool.1 mph88%30.06 "Hg19 mi
6:00 PM55 °FCool.1 mph87%30.07 "Hg22 mi
Weather by CustomWeather, © 2015

See weather overviewHow to use our weather pages